Tinker AFB, OK

8:26 PM CST on February 18, 2018 (GMT -0600)
Tinker Air Force Base

Weather History for KTIK - February, 2013

Change the Weather History Date:

Friday, February 15, 2013

  Actual Average Record
Temperature  
Mean Temperature 35 °F -  
Max Temperature 42 °F 52 °F 79 °F (2018)
Min Temperature 28 °F 33 °F 11 °F (2007)
Degree Days  
Heating Degree Days 30    
Moisture  
Dew Point 25 °F    
Average Humidity 70    
Maximum Humidity 100    
Minimum Humidity 32    
Precipitation  
Precipitation 0.00 in - - ()
Sea Level Pressure  
Sea Level Pressure 30.38 in    
Wind  
Wind Speed 13 mph (NW)    
Max Wind Speed 17 mph    
Max Gust Speed 22 mph    
Visibility 8 miles    
Events Rain , Snow    
Averages and records for this station are not official NWS values.
T = Trace of Precipitation, MM = Missing Value Source: NWS Daily Summary

Daily Weather History Graph

Daily Weather History Graph

Search for Another Location

Airport or City:

Trip Planner

Search our weather history database for the weather conditions in past years. The results will help you decide how hot, cold, wet, or windy it might be!

Date:

Astronomy

Feb. 15, 2013 Rise Set
Actual Time 7:15 AM CST 6:12 PM CST
Civil Twilight 6:49 AM CST 6:38 PM CST
Nautical Twilight 6:19 AM CST 7:07 PM CST
Astronomical Twilight 5:50 AM CST 7:37 PM CST
Moon 10:06 AM CST (2/15) 11:59 PM CST (2/15)
Length of Visible Light 11h 48m
Length of Day
10h 56m
Waxing Crescent, 30% of the Moon is Illuminated
Feb 15
Waxing Crescent
Feb 17
First Quarter
Feb 25
Full
Mar 4
Last Quarter
Mar 11
New

Hourly Weather History & Observations

Time (CST) Temp. Windchill Dew Point Humidity Pressure Visibility Wind Dir Wind Speed Gust Speed Precip Events Conditions
12:55 AM 41.5 °F 33.2 °F 35.8 °F 80% 30.24 in 10.0 mi North 17.3 mph - N/A   Partly Cloudy
1:55 AM 41.2 °F 33.0 °F 36.1 °F 82% 30.27 in 10.0 mi NNW 16.1 mph - N/A   Mostly Cloudy
2:55 AM 39.7 °F 30.9 °F 28.4 °F 64% 30.29 in 10.0 mi North 17.3 mph - N/A   Mostly Cloudy
3:55 AM 37.8 °F 29.4 °F 24.8 °F 60% 30.30 in 10.0 mi North 13.8 mph - N/A   Mostly Cloudy
4:55 AM 35.1 °F 24.8 °F 21.4 °F 57% 30.31 in 10.0 mi North 17.3 mph 21.9 mph N/A   Mostly Cloudy
5:55 AM 32.4 °F 21.3 °F 21.7 °F 65% 30.34 in 10.0 mi NNW 17.3 mph - N/A   Partly Cloudy
6:55 AM 30.0 °F 18.7 °F 21.7 °F 71% 30.35 in 10.0 mi North 16.1 mph - N/A   Clear
7:55 AM 28.9 °F 16.9 °F 21.6 °F 74% 30.38 in 10.0 mi North 17.3 mph - N/A   Clear
8:55 AM 30.7 °F 20.4 °F 21.7 °F 69% 30.42 in 10.0 mi North 13.8 mph - N/A   Clear
9:55 AM 33.1 °F 23.4 °F 21.7 °F 63% 30.43 in 10.0 mi NNW 13.8 mph - N/A   Clear
10:55 AM 36.5 °F 27.4 °F 20.3 °F 52% 30.43 in 10.0 mi North 15.0 mph 20.7 mph N/A   Clear
11:55 AM 38.1 °F 30.2 °F 17.1 °F 43% 30.42 in 10.0 mi NNE 12.7 mph - N/A   Clear
12:55 PM 39.4 °F 34.5 °F 18.1 °F 42% 30.41 in 10.0 mi North 6.9 mph - N/A   Clear
1:55 PM 41.7 °F 36.1 °F 17.2 °F 37% 30.37 in 10.0 mi NW 9.2 mph - N/A   Clear
2:55 PM 42.6 °F 36.3 °F 15.4 °F 33% 30.37 in 10.0 mi NW 11.5 mph 18.4 mph N/A   Clear
3:55 PM 42.8 °F 37.5 °F 14.7 °F 32% 30.36 in 10.0 mi NNW 9.2 mph 17.3 mph N/A   Partly Cloudy
4:55 PM 41.9 °F 36.3 °F 13.8 °F 32% 30.37 in 10.0 mi NNW 9.2 mph - N/A   Mostly Cloudy
5:55 PM 40.1 °F 33.6 °F 16.5 °F 39% 30.37 in 10.0 mi NW 10.4 mph - N/A   Mostly Cloudy
6:55 PM 38.1 °F 31.7 °F 17.8 °F 44% 30.38 in 10.0 mi NW 9.2 mph - N/A   Mostly Cloudy
7:55 PM 35.6 °F 32.8 °F 18.1 °F 49% 30.38 in 10.0 mi NW 3.5 mph - N/A   Clear
8:55 PM 34.7 °F - 22.3 °F 61% 30.37 in 10.0 mi Calm Calm - N/A   Clear
9:55 PM 35.2 °F 31.2 °F 22.8 °F 61% 30.38 in 10.0 mi West 4.6 mph - N/A   Clear
10:42 PM 37.4 °F 28.5 °F 26.6 °F 65% 30.39 in 10.0 mi West 15.0 mph - N/A Snow Light Snow
10:55 PM 36.1 °F 27.3 °F 28.0 °F 72% 30.40 in 10.0 mi West 13.8 mph - 0.00 in Rain Light Rain
10:58 PM 35.6 °F 27.1 °F 30.2 °F 81% 30.40 in 5.0 mi West 12.7 mph - N/A Snow Light Snow
11:03 PM 33.8 °F 24.3 °F 30.2 °F 87% 30.41 in 3.0 mi WNW 13.8 mph - N/A Snow Light Snow
11:09 PM 33.8 °F 25.3 °F 32.0 °F 93% 30.40 in 2.0 mi West 11.5 mph - N/A Snow Light Snow
11:11 PM 33.8 °F 25.3 °F 32.0 °F 93% 30.40 in 2.0 mi WNW 11.5 mph - N/A Snow Light Snow
11:17 PM 33.8 °F 25.3 °F 32.0 °F 93% 30.40 in 2.5 mi WNW 11.5 mph - N/A Snow Light Snow
11:26 PM 33.8 °F 25.8 °F 32.0 °F 93% 30.41 in 2.5 mi WNW 10.4 mph - N/A Snow Light Snow
11:28 PM 33.8 °F 26.4 °F 32.0 °F 93% 30.41 in 3.0 mi WNW 9.2 mph - N/A Snow Light Snow
11:37 PM 33.8 °F 27.7 °F 33.8 °F 100% 30.41 in 4.0 mi WNW 6.9 mph - N/A Snow Light Snow
11:48 PM 33.8 °F 26.4 °F 33.8 °F 100% 30.41 in 2.5 mi WNW 9.2 mph - N/A Snow Light Snow
11:49 PM 33.8 °F 26.4 °F 33.8 °F 100% 30.41 in 2.5 mi WNW 9.2 mph - N/A Snow Light Snow
11:55 PM 32.9 °F 25.9 °F 32.9 °F 100% 30.41 in 2.5 mi WNW 8.1 mph - 0.00 in Snow Light Snow
11:56 PM 32.0 °F 24.8 °F 32.0 °F 100% 30.41 in 2.5 mi NW 8.1 mph - N/A Snow Light Snow
11:59 PM 32.0 °F 25.6 °F 32.0 °F 100% 30.41 in 3.0 mi NW 6.9 mph - N/A Snow Light Snow